Zurück zum Katalog

STARLINK-30321

AktivKommunikationVLEO
NORAD 57679·PAYLOAD·🇺🇸 United States

Gestartet Aug 22, 2023 von Vandenberg Space Force Base

Loading…

Nächste Überflüge (nächste 24 Stunden)

TLE

AktuellSource: CelesTrak SupGP

Epoche: Sep 14, 2026, 20:40 UTC

1 57679C 23124S   26257.86159722  .00039369  00000+0  11636-2 0  2573
2 57679  53.1596  45.7594 0001255  85.8086 306.8660 15.34359019    17

Verfolge STARLINK-30321 in Echtzeit mit AllMySat

Download on the App Store